GW1068 Weather Reports


time (UTC)temp
C
wind
direction
speed
KPH
gust
KPH
rain 1hr
cm
rain 24hr
cm
rain mn
cm
humidity
%
barometer
mb
20260510145939 27 336 1.6 1.6 0.00 0.03 0.03 75 1015.4
20260510145431 27 345 0.0 1.6 0.00 0.03 0.03 78 1015.4
20260510144927 27 292 3.2 3.2 0.00 0.03 0.03 79 1015.5
20260510144424 26 273 0.0 1.6 0.00 0.03 0.03 81 1015.5
20260510143919 26 291 0.0 0.0 0.00 0.03 0.03 83 1015.3
20260510143415 26 251 0.0 1.6 0.00 0.03 0.03 84 1015.5
20260510142913 26 162 4.8 4.8 0.00 0.03 0.03 81 1015.3
20260510142409 26 145 4.8 4.8 0.00 0.03 0.03 81 1015.3
20260510141906 26 2 0.0 1.6 0.00 0.03 0.03 83 1015.4
20260510141403 25 252 1.6 1.6 0.00 0.03 0.03 86 1015.3
20260510140900 24 259 0.0 1.6 0.00 0.03 0.03 88 1015.2
20260510140355 23 347 0.0 0.0 0.00 0.03 0.03 89 1015.2
20260510135849 23 266 0.0 1.6 0.00 0.03 0.03 90 1015.2
20260510135345 23 200 0.0 1.6 0.00 0.03 0.03 92 1015.3
20260510134843 23 321 0.0 0.0 0.00 0.03 0.03 94 1015.2
20260510134340 23 260 0.0 0.0 0.00 0.03 0.03 94 1015.2
20260510133836 23 244 0.0 0.0 0.00 0.03 0.03 95 1015.0
20260510133332 23 282 0.0 0.0 0.00 0.03 0.03 96 1015.2
20260510132828 23 293 0.0 0.0 0.00 0.03 0.03 96 1015.2
20260510132326 22 294 0.0 0.0 0.00 0.03 0.03 96 1015.0
20260510131823 22 332 0.0 0.0 0.00 0.03 0.03 96 1015.1
20260510131320 22 290 0.0 0.0 0.00 0.03 0.03 96 1014.9
20260510130817 22 302 0.0 0.0 0.00 0.03 0.03 96 1014.9
20260510130314 22 278 0.0 0.0 0.00 0.03 0.03 97 1014.8
20260510125810 22 278 0.0 0.0 0.00 0.03 0.03 97 1014.9
20260510125307 22 277 0.0 0.0 0.00 0.03 0.03 97 1015.0
20260510124803 21 277 0.0 0.0 0.00 0.03 0.03 96 1014.8
20260510124300 21 277 0.0 0.0 0.00 0.03 0.03 97 1014.8
20260510123755 21 277 0.0 0.0 0.00 0.03 0.03 97 1014.7
20260510123251 21 277 0.0 0.0 0.00 0.03 0.03 97 1014.6
20260510122748 21 277 0.0 0.0 0.00 0.03 0.03 96 1014.5
20260510122244 21 277 0.0 0.0 0.00 0.03 0.03 97 1014.4
20260510121740 21 277 0.0 0.0 0.00 0.03 0.03 97 1014.6
20260510121238 20 277 0.0 0.0 0.00 0.03 0.03 97 1014.5
20260510120736 20 277 0.0 0.0 0.00 0.03 0.03 97 1014.3
20260510120232 20 277 0.0 0.0 0.00 0.03 0.03 97 1014.3
20260510115728 20 277 0.0 0.0 0.00 0.03 0.03 97 1014.2
20260510115226 20 277 0.0 0.0 0.00 0.03 0.03 97 1014.0
20260510114721 20 277 0.0 0.0 0.00 0.03 0.03 97 1013.8
20260510114218 20 277 0.0 0.0 0.00 0.03 0.03 97 1014.2
20260510113714 20 277 0.0 0.0 0.00 0.03 0.03 97 1013.9
20260510113210 20 277 0.0 0.0 0.00 0.03 0.03 97 1013.6
20260510112706 20 277 0.0 0.0 0.00 0.03 0.03 97 1013.8
20260510112204 19 277 0.0 0.0 0.00 0.03 0.03 97 1013.6
20260510111659 19 277 0.0 0.0 0.00 0.03 0.03 97 1013.5
20260510111156 19 277 0.0 0.0 0.00 0.03 0.03 97 1013.4
20260510110650 19 277 0.0 0.0 0.00 0.03 0.03 97 1013.3
20260510110149 19 277 0.0 0.0 0.00 0.03 0.03 97 1013.5
20260510105644 19 277 0.0 0.0 0.00 0.03 0.03 97 1013.3
20260510105144 19 277 0.0 0.0 0.00 0.03 0.03 97 1013.5
20260510104641 19 277 0.0 0.0 0.00 0.03 0.03 97 1013.3
20260510104137 19 277 0.0 0.0 0.00 0.03 0.03 97 1013.1
20260510103634 19 277 0.0 0.0 0.00 0.03 0.03 97 1013.1
20260510103131 19 277 0.0 0.0 0.00 0.03 0.03 97 1013.2
20260510102626 19 277 0.0 0.0 0.00 0.03 0.03 97 1013.0
20260510102122 19 277 0.0 0.0 0.00 0.03 0.03 96 1012.8
20260510101620 19 277 0.0 0.0 0.00 0.03 0.03 96 1012.7
20260510101118 20 277 0.0 0.0 0.00 0.03 0.03 97 1012.8
20260510100614 20 277 0.0 0.0 0.00 0.03 0.03 96 1012.8
20260510100111 20 277 0.0 0.0 0.00 0.03 0.03 96 1012.6
20260510095607 19 276 0.0 0.0 0.00 0.03 0.03 97 1012.4
20260510095102 19 276 0.0 0.0 0.00 0.03 0.03 97 1012.5
20260510094601 19 276 0.0 0.0 0.00 0.03 0.03 97 1012.5
20260510094057 19 276 0.0 0.0 0.00 0.03 0.03 96 1012.5
20260510093553 19 276 0.0 0.0 0.00 0.03 0.03 96 1012.5
20260510093050 19 276 0.0 0.0 0.00 0.03 0.03 96 1012.6
20260510092547 19 276 0.0 0.0 0.00 0.03 0.03 97 1012.4
20260510092046 19 276 0.0 0.0 0.00 0.03 0.03 97 1012.2
20260510091544 19 276 0.0 0.0 0.00 0.03 0.03 96 1012.2
20260510091040 19 276 0.0 0.0 0.00 0.03 0.03 97 1012.4
20260510090537 19 276 0.0 0.0 0.00 0.03 0.03 96 1012.1
20260510090032 19 276 0.0 0.0 0.00 0.03 0.03 97 1012.1
20260510085527 19 276 0.0 0.0 0.00 0.03 0.03 96 1012.1
20260510085023 19 276 0.0 0.0 0.00 0.03 0.03 96 1012.1
20260510084520 19 276 0.0 0.0 0.00 0.03 0.03 96 1011.9
20260510084017 19 276 0.0 0.0 0.00 0.03 0.03 96 1011.9
20260510083513 19 276 0.0 0.0 0.00 0.03 0.03 96 1011.9
20260510083009 19 276 0.0 0.0 0.00 0.03 0.03 96 1011.7
20260510082507 19 276 0.0 0.0 0.00 0.03 0.03 96 1011.8
20260510082006 20 276 0.0 0.0 0.00 0.03 0.03 96 1012.0
20260510081502 20 276 0.0 0.0 0.00 0.03 0.03 96 1011.7
20260510080958 20 276 0.0 0.0 0.00 0.03 0.03 96 1011.8
20260510080456 20 276 0.0 0.0 0.00 0.03 0.03 96 1011.7
20260510075954 20 276 0.0 0.0 0.00 0.03 0.03 96 1011.7
20260510075451 20 276 0.0 0.0 0.00 0.03 0.03 96 1011.8
20260510074948 20 276 0.0 0.0 0.00 0.03 0.03 96 1011.6
20260510074445 20 276 0.0 0.0 0.00 0.03 0.03 96 1011.9
20260510073941 20 276 0.0 0.0 0.00 0.03 0.03 96 1011.7
20260510073437 20 276 0.0 0.0 0.00 0.03 0.03 96 1011.8
20260510072934 20 276 0.0 0.0 0.00 0.03 0.03 96 1011.8
20260510072431 20 276 0.0 0.0 0.00 0.03 0.03 96 1011.9
20260510071927 20 276 0.0 0.0 0.00 0.03 0.03 96 1011.7
20260510071423 20 276 0.0 0.0 0.00 0.03 0.03 96 1011.9
20260510070922 20 276 0.0 0.0 0.00 0.03 0.03 96 1011.7
20260510070419 20 276 0.0 0.0 0.00 0.03 0.03 96 1011.8
20260510065914 20 275 0.0 0.0 0.00 0.03 0.03 96 1011.8
20260510065410 20 275 0.0 0.0 0.00 0.03 0.03 96 1011.7
20260510064907 20 276 0.0 0.0 0.00 0.03 0.03 96 1011.9
20260510064405 20 275 0.0 0.0 0.00 0.03 0.03 96 1011.9
20260510063901 20 275 0.0 0.0 0.00 0.03 0.03 96 1012.0
20260510063357 20 275 0.0 0.0 0.00 0.03 0.03 96 1011.9
20260510062855 20 269 0.0 0.0 0.00 0.03 0.03 96 1011.9
20260510062349 20 269 0.0 0.0 0.00 0.03 0.03 96 1011.9
20260510061845 20 269 0.0 0.0 0.00 0.03 0.03 96 1012.0
20260510061343 20 269 0.0 0.0 0.00 0.03 0.03 96 1012.0
20260510060838 20 269 0.0 0.0 0.00 0.03 0.03 96 1012.2
20260510060335 20 284 0.0 0.0 0.00 0.03 0.03 96 1012.3
20260510055832 20 284 0.0 0.0 0.00 0.03 0.03 96 1012.2
20260510055330 20 285 0.0 0.0 0.00 0.03 0.03 96 1012.2
20260510054825 20 284 0.0 0.0 0.00 0.03 0.03 96 1012.4
20260510054321 20 285 0.0 0.0 0.00 0.03 0.03 96 1012.4
20260510053816 20 268 0.0 0.0 0.00 0.03 0.03 96 1012.6
20260510053312 20 268 0.0 0.0 0.00 0.03 0.03 96 1012.5
20260510052808 20 267 0.0 0.0 0.00 0.03 0.03 96 1012.5
20260510052306 20 262 0.0 0.0 0.00 0.03 0.03 96 1012.5
20260510051800 20 290 0.0 0.0 0.00 0.03 0.03 96 1012.5
20260510051257 20 290 0.0 0.0 0.00 0.03 0.03 96 1012.7
20260510050754 20 290 0.0 0.0 0.00 0.03 0.03 96 1012.7
20260510050251 20 290 0.0 0.0 0.00 0.03 0.03 96 1012.8
20260510045748 20 290 0.0 0.0 0.00 0.03 0.03 96 1013.0
20260510045244 20 290 0.0 0.0 0.00 0.03 0.03 96 1013.0
20260510044742 20 291 0.0 0.0 0.00 0.03 0.03 96 1013.1
20260510044239 20 291 0.0 0.0 0.00 0.03 0.03 96 1013.2
20260510043734 20 291 0.0 0.0 0.00 0.03 0.03 96 1013.4
20260510043231 20 291 0.0 0.0 0.13 0.03 0.03 96 1013.5
20260510042729 20 290 0.0 0.0 0.13 0.03 0.03 96 1013.5
20260510042224 20 291 0.0 0.0 0.00 0.00 0.00 96 1013.5
20260510041721 20 291 0.0 0.0 0.00 0.00 0.00 96 1013.6
20260510041218 20 291 0.0 0.0 0.00 0.00 0.00 96 1013.6
20260510040715 20 291 0.0 0.0 0.00 0.00 0.00 96 1013.5
20260510040212 20 290 0.0 0.0 0.00 0.00 0.00 95 1013.7
20260510035707 20 291 0.0 0.0 0.00 2.11 2.11 95 1013.8
20260510035204 20 291 0.0 0.0 0.00 2.11 2.11 96 1013.7
20260510034700 20 291 0.0 0.0 0.00 2.11 2.11 96 1013.8
20260510034157 20 291 0.0 0.0 0.00 2.11 2.11 95 1013.6
20260510033653 20 291 0.0 0.0 0.00 2.11 2.11 95 1013.7
20260510033151 20 291 0.0 0.0 0.00 2.11 2.11 95 1013.5
20260510032647 20 291 0.0 0.0 0.00 2.11 2.11 95 1013.5
20260510032143 20 291 0.0 0.0 0.00 2.11 2.11 95 1013.6
20260510031637 20 291 0.0 0.0 0.00 2.11 2.11 95 1013.5
20260510031135 20 291 0.0 0.0 0.00 2.11 2.11 95 1013.7
20260510030629 20 291 0.0 0.0 0.00 2.11 2.11 95 1013.6
20260510030127 20 291 0.0 0.0 0.00 2.11 2.11 95 1013.6
20260510025624 20 291 0.0 0.0 0.00 2.11 2.11 95 1013.5
20260510025121 20 291 0.0 0.0 0.00 2.11 2.11 95 1013.5
20260510024618 20 291 0.0 0.0 0.00 2.11 2.11 95 1013.5
20260510024114 20 291 0.0 0.0 0.00 2.11 2.11 95 1013.5
20260510023610 20 292 0.0 0.0 0.00 2.11 2.11 95 1013.5
20260510023108 20 292 0.0 0.0 0.00 2.11 2.11 95 1013.4
20260510022608 20 292 0.0 0.0 0.00 2.11 2.11 95 1013.5
20260510022102 20 292 0.0 0.0 0.00 2.11 2.11 95 1013.2
20260510021559 20 292 0.0 0.0 0.00 2.11 2.11 95 1013.0
20260510021056 20 294 0.0 0.0 0.00 2.11 2.11 95 1013.0
20260510020550 20 293 0.0 0.0 0.00 2.11 2.11 95 1013.2
20260510020046 20 293 0.0 0.0 0.00 2.11 2.11 95 1013.0
20260510015542 20 290 0.0 0.0 0.00 2.11 2.11 95 1012.9
20260510015038 20 264 0.0 0.0 0.00 2.11 2.11 95 1012.9
20260510014535 20 294 0.0 0.0 0.00 2.11 2.11 95 1012.5
20260510014032 20 299 0.0 0.0 0.00 2.11 2.11 95 1012.3
20260510013526 20 293 0.0 0.0 0.00 2.11 2.11 95 1012.7
20260510013022 20 293 0.0 0.0 0.00 2.11 2.11 95 1012.4
20260510012522 20 293 0.0 0.0 0.00 2.11 2.11 94 1012.3
20260510012018 20 293 0.0 0.0 0.00 2.11 2.11 94 1012.2
20260510011518 20 293 0.0 0.0 0.00 2.11 2.11 94 1012.2
20260510011013 20 294 0.0 0.0 0.00 2.11 2.11 94 1012.1
20260510010511 20 293 0.0 0.0 0.00 2.11 2.11 94 1012.4
20260510010008 20 293 0.0 0.0 0.00 2.11 2.11 94 1012.3
20260510005503 20 293 0.0 0.0 0.00 2.11 2.11 94 1012.3
20260510005001 20 293 0.0 0.0 0.00 2.11 2.11 94 1012.1
20260510004458 20 293 0.0 0.0 0.00 2.11 2.11 94 1011.9
20260510003957 20 293 0.0 0.0 0.00 2.11 2.11 94 1011.8
20260510003453 20 294 0.0 0.0 0.00 2.11 2.11 94 1011.7
20260510002948 20 293 0.0 0.0 0.00 2.11 2.11 94 1011.8
20260510002444 20 293 0.0 0.0 0.00 2.11 2.11 94 1011.7
20260510001941 20 291 0.0 0.0 0.00 2.11 2.11 94 1012.1
20260510001438 20 288 0.0 0.0 0.00 2.11 2.11 94 1012.0
20260510000936 20 307 0.0 0.0 0.00 2.11 2.11 94 1011.9
20260510000433 20 296 0.0 0.0 0.00 2.11 2.11 94 1012.0
20260509235928 20 274 0.0 0.0 0.00 2.11 2.11 93 1011.7
20260509235426 20 274 0.0 0.0 0.00 2.11 2.11 94 1012.1
20260509234921 20 297 0.0 0.0 0.00 2.11 2.11 93 1012.0
20260509234419 20 305 0.0 0.0 0.00 2.11 2.11 93 1011.8
20260509233917 20 310 0.0 0.0 0.00 2.11 2.11 93 1011.8
20260509233414 21 296 0.0 0.0 0.00 2.11 2.11 93 1011.8
20260509232910 21 313 0.0 1.6 0.66 2.11 2.11 93 1011.9
20260509232408 21 307 0.0 0.0 0.79 2.11 2.11 93 1011.9
20260509231903 21 312 0.0 0.0 0.30 2.01 2.01 93 1012.2
20260509231400 21 294 0.0 0.0 0.30 1.98 1.98 93 1012.4
20260509230859 21 314 0.0 0.0 0.43 1.96 1.96 93 1012.3
20260509230355 21 298 0.0 0.0 0.48 1.93 1.93 93 1012.5
20260509225851 21 300 0.0 0.0 0.43 1.91 1.91 93 1012.7
20260509225348 21 290 0.0 0.0 0.61 1.85 1.85 92 1012.5
20260509224843 21 298 0.0 0.0 0.97 1.83 1.83 92 1012.6
20260509224339 21 292 0.0 0.0 0.79 1.78 1.78 92 1012.7
20260509223837 21 308 1.6 1.6 0.43 1.68 1.68 92 1012.8
20260509223333 21 302 0.0 0.0 0.30 1.65 1.65 92 1012.9
20260509222830 21 290 0.0 1.6 0.00 1.60 1.60 91 1012.8
20260509222325 21 285 1.6 1.6 0.00 1.60 1.60 91 1012.7
20260509221821 21 297 1.6 3.2 0.18 1.60 1.60 91 1012.5
20260509221319 21 291 1.6 1.6 0.18 1.60 1.60 91 1012.6
20260509220814 21 296 3.2 4.8 0.30 1.60 1.60 90 1012.2
20260509220310 21 308 1.6 1.6 0.30 1.57 1.57 89 1012.2
20260509215806 22 326 3.2 3.2 0.18 1.55 1.55 89 1012.3
20260509215305 22 297 0.0 1.6 0.00 1.52 1.52 89 1012.3
20260509214800 22 296 3.2 3.2 0.00 1.52 1.52 88 1012.1
20260509214257 22 302 0.0 0.0 0.00 1.52 1.52 89 1012.3
20260509213754 22 292 1.6 1.6 0.00 1.52 1.52 89 1012.0
20260509213249 22 280 0.0 0.0 0.00 1.52 1.52 89 1012.0
20260509212747 22 312 6.4 9.7 0.00 1.52 1.52 89 1011.8
20260509212244 22 311 1.6 1.6 0.00 1.52 1.52 90 1011.8
20260509211745 22 303 0.0 0.0 0.00 1.52 1.52 90 1011.9
20260509211241 22 284 3.2 3.2 0.00 1.52 1.52 90 1011.6
20260509210738 21 287 0.0 0.0 0.00 1.52 1.52 91 1011.7
20260509210236 21 311 0.0 1.6 0.00 1.52 1.52 91 1011.7
20260509205735 22 320 0.0 0.0 0.00 1.52 1.52 91 1011.7
20260509205236 22 304 0.0 0.0 0.00 1.52 1.52 91 1011.9
20260509204732 22 267 0.0 0.0 0.13 1.52 1.52 91 1011.7
20260509204228 22 302 0.0 0.0 0.13 1.52 1.52 90 1011.5
20260509203724 22 268 4.8 4.8 0.00 1.50 1.50 90 1011.7
20260509203223 22 352 1.6 3.2 0.00 1.50 1.50 90 1011.7
20260509202718 22 294 1.6 1.6 0.00 1.50 1.50 90 1011.5
20260509202214 22 349 3.2 3.2 0.00 1.50 1.50 89 1011.5
20260509201709 22 317 3.2 4.8 0.00 1.50 1.50 89 1011.2
20260509201206 23 297 4.8 8.0 0.00 1.50 1.50 88 1011.6
20260509200702 23 316 9.7 12.9 0.00 1.50 1.50 91 1011.6
20260509200157 23 294 3.2 3.2 0.00 1.50 1.50 91 1011.6
20260509195653 24 307 1.6 1.6 0.00 1.50 1.50 91 1011.3
20260509195149 24 326 4.8 8.0 0.00 1.50 1.50 92 1011.6
20260509194648 24 307 1.6 1.6 0.00 1.50 1.50 92 1011.5
20260509194146 24 295 3.2 3.2 0.00 1.50 1.50 92 1011.4
20260509193641 24 303 0.0 1.6 0.00 1.50 1.50 93 1011.6
20260509193137 24 316 0.0 0.0 0.00 1.50 1.50 93 1011.3
20260509192634 23 296 0.0 0.0 0.00 1.50 1.50 93 1011.4
20260509192130 23 298 3.2 3.2 0.00 1.50 1.50 93 1011.6
20260509191629 23 293 3.2 4.8 0.00 1.50 1.50 93 1011.8
20260509191126 23 275 1.6 3.2 0.18 1.50 1.50 93 1011.7
20260509190623 23 333 1.6 1.6 1.55 1.50 1.50 92 1011.8
20260509190120 23 356 1.6 1.6 2.59 1.47 1.47 92 1011.9
20260509185618 23 270 0.0 0.0 1.98 1.27 1.27 92 1012.0
20260509185113 23 257 0.0 0.0 1.07 1.09 1.09 92 1012.2
20260509184612 23 294 0.0 0.0 0.18 0.94 0.94 91 1012.2
20260509184108 23 296 0.0 0.0 0.00 0.91 0.91 91 1012.0
20260509183603 23 296 0.0 0.0 0.00 0.91 0.91 90 1011.9
20260509183059 23 288 0.0 0.0 0.00 0.91 0.91 90 1012.0
20260509182556 23 287 1.6 1.6 0.00 0.91 0.91 90 1011.9
20260509182053 23 286 0.0 0.0 0.00 0.91 0.91 90 1012.1
20260509181551 23 286 1.6 1.6 0.89 0.91 0.91 90 1011.9
20260509181048 23 308 0.0 0.0 1.80 0.91 0.91 90 1012.1
20260509180543 23 305 1.6 3.2 1.07 0.79 0.79 90 1012.1
20260509180042 24 306 3.2 3.2 0.00 0.61 0.61 91 1012.4
20260509175537 24 295 0.0 0.0 0.48 0.61 0.61 91 1011.9
20260509175034 24 340 1.6 1.6 0.48 0.61 0.61 90 1012.0
20260509174530 24 307 0.0 0.0 0.79 0.53 0.53 89 1012.0
20260509174026 25 314 0.0 0.0 2.77 0.53 0.53 88 1012.0
20260509173520 25 296 1.6 3.2 2.69 0.46 0.46 84 1012.1
20260509173017 26 304 3.2 3.2 0.61 0.10 0.10 77 1011.9
20260509172514 28 256 1.6 1.6 0.00 0.00 0.00 71 1012.1
20260509172009 28 354 0.0 1.6 0.00 0.00 0.00 68 1011.9
20260509171506 28 303 0.0 1.6 0.00 0.00 0.00 69 1011.9
20260509171002 28 225 0.0 0.0 0.00 0.00 0.00 69 1012.3
20260509170458 28 242 1.6 1.6 0.00 0.00 0.00 69 1012.1
20260509165953 28 244 0.0 0.0 0.00 0.00 0.00 70 1012.3
20260509165453 28 128 3.2 3.2 0.00 0.00 0.00 69 1012.2
20260509164949 28 202 4.8 4.8 0.00 0.00 0.00 69 1012.3
20260509164444 28 185 4.8 4.8 0.00 0.00 0.00 70 1012.3
20260509163941 28 238 3.2 3.2 0.00 0.00 0.00 69 1012.3
20260509163438 28 268 1.6 3.2 0.00 0.00 0.00 69 1012.3
20260509162937 28 293 1.6 3.2 0.00 0.00 0.00 68 1012.2
20260509162436 27 239 1.6 1.6 0.00 0.00 0.00 69 1012.4
20260509161932 27 262 1.6 3.2 0.00 0.00 0.00 70 1012.3
20260509161428 28 268 3.2 4.8 0.00 0.00 0.00 69 1012.4
20260509160924 28 174 4.8 4.8 0.00 0.00 0.00 68 1012.4
20260509160420 28 280 1.6 1.6 0.00 0.00 0.00 69 1012.4
20260509155915 27 260 0.0 0.0 0.00 0.00 0.00 72 1012.5
20260509155412 27 306 3.2 3.2 0.00 0.00 0.00 71 1012.4
20260509154908 27 278 0.0 1.6 0.00 0.00 0.00 73 1012.4
20260509154405 27 275 1.6 1.6 0.00 0.00 0.00 73 1012.2
20260509153901 26 291 1.6 1.6 0.00 0.00 0.00 73 1012.0
20260509153359 26 255 0.0 0.0 0.00 0.00 0.00 75 1011.9
20260509152856 26 279 0.0 1.6 0.00 0.00 0.00 74 1012.1
20260509152352 26 297 1.6 1.6 0.00 0.00 0.00 76 1012.0
20260509151849 26 99 1.6 1.6 0.00 0.00 0.00 75 1012.1
20260509151345 26 262 1.6 4.8 0.00 0.00 0.00 74 1012.2
20260509150844 26 296 0.0 0.0 0.00 0.00 0.00 76 1012.2